Regional Weather Roundup
Issued by NWS

Home | Current Version | Previous Version | Graphics & Text | Print | Product List | Glossary On
Versions: 1 2 3 4 5 6 7 8 9 10 11 12 13 14 15 16 17 18 19 20 21 22 23 24 25 26 27 28 29 30 31 32 33 34 35 36 37 38 39 40 41 42 43 44 45 46 47 48 49 50
000
ASUS43 KLMK 011002
RWRKY
KENTUCKY REGIONAL WEATHER ROUNDUP
NATIONAL WEATHER SERVICE LOUISVILLE KY
600 AM EDT SUN MAY 01 2016

NOTE "FAIR" INDICATES FEW OR NO CLOUDS BELOW 12,000 FEET
WITH NO SIGNIFICANT WEATHER AND/OR OBSTRUCTIONS TO VISIBILITY.

KYZ001>023-026-027-061>063-070>075-011100-
WESTERN AND SOUTH CENTRAL KENTUCKY

CITY           SKY/WX    TMP DP  RH WIND       PRES   REMARKS
PADUCAH        CLOUDY    64  61  90 CALM      29.89R
HENDERSON      CLEAR     57  54  88 CALM      29.89S
OWENSBORO      CLEAR     62  60  93 CALM      29.89F
HOPKINSVILLE   CLEAR     63  63 100 SW2       29.89R FOG
BOWLING GREEN  MOCLDY    66  64  93 S3        29.90S
GLASGOW        NOT AVBL
$$

KYZ024-025-028>034-038-045-046-053-011100-
NORTH CENTRAL KENTUCKY

CITY           SKY/WX    TMP DP  RH WIND       PRES   REMARKS
LOUISVILLE/SDF CLOUDY    64  63  96 CALM      29.90R FOG
LOUISVILLE/LOU CLOUDY    64  62  93 SE3       29.90S FOG
FORT KNOX      CLOUDY    63  63 100 W2        29.89R
$$

KYZ035>037-039>044-047>052-055>060-089>105-011100-
NORTHEAST KENTUCKY

CITY           SKY/WX    TMP DP  RH WIND       PRES   REMARKS
LEXINGTON      CLOUDY    63  61  93 S8        29.91R
COVINGTON      LGT RAIN  62  61  96 S8        29.90R
FRANKFORT      CLOUDY    63  60  90 CALM      29.90R
$$

KYZ054-064>069-076>088-106>120-011100-
SOUTHEAST KENTUCKY

CITY           SKY/WX    TMP DP  RH WIND       PRES   REMARKS
JACKSON        LGT RAIN  60  59  96 CALM      29.95F VSB 3/4
LONDON         LGT RAIN  60  60 100 CALM      29.94F
SOMERSET       NOT AVBL
MIDDLESBORO    NOT AVBL
MONTICELLO     CLOUDY    61  60  97 NE8       29.95R
$$




USA.gov is the U.S. government's official web portal to all federal, state and local government web resources and services.